Flight Track Log - Related Links

Times and Time Zones

All times are in EDT time to prevent confusion due to time zone crossing. See the UPS1295 flight status page for this flight to view local times or setup timezone preferences in your user account.

Time Position Orientation Groundspeed Altitude Reporting Facility
EDT Latitude Longitude Course Direction KTS MPH feet Rate Location/Type
Thu 11:27:43 PM 35.1150 -82.0630 29° Northeast 348 400 10,800  Level FlightAware ADS-B
Thu 11:28:21 PM 35.1630 -82.0300 29° Northeast 360 414 11,000 1,851 Climbing FlightAware ADS-B
Thu 11:29:17 PM 35.2590 -81.9820 22° Northeast 396 456 13,700 3,254 Climbing FlightAware ADS-B
Thu 11:30:19 PM 35.3690 -82.0700 327° Northwest 437 503 17,400 3,216 Climbing FlightAware ADS-B
Thu 11:30:54 PM 35.4160 -82.1320 313° West 443 510 18,900 2,615 Climbing FlightAware ADS-B
Thu 11:31:37 PM 35.4826 -82.2134 315° West 454 522 20,800 2,595 Climbing FlightAware ADS-B
Thu 11:32:08 PM 35.5279 -82.2681 316° Northwest 457 526 22,100 2,066 Climbing FlightAware ADS-B
Thu 11:32:38 PM 35.5737 -82.3237 315° West 470 541 22,900 1,869 Climbing FlightAware ADS-B
Thu 11:33:09 PM 35.6225 -82.3843 315° West 476 548 24,000 2,226 Climbing FlightAware ADS-B
Thu 11:33:40 PM 35.6704 -82.4417 316° Northwest 476 548 25,200 2,516 Climbing FlightAware ADS-B
Thu 11:34:11 PM 35.7189 -82.5025 315° West 471 542 26,600 2,700 Climbing FlightAware ADS-B
Thu 11:35:00 PM 35.7936 -82.5941 315° West 460 529 28,800 2,475 Climbing FlightAware ADS-B
Thu 11:35:31 PM 35.8409 -82.6514 316° Northwest 459 528 29,900 1,125 Climbing FlightAware ADS-B
Thu 11:36:04 PM 35.8900 -82.7110 315° West 466 536 30,000 94 Climbing FlightAware ADS-B
Thu 11:36:35 PM 35.9371 -82.7692 315° West 465 535 30,000  Level FlightAware ADS-B
Thu 11:37:05 PM 35.9827 -82.8251 315° West 460 529 30,000  Level FlightAware ADS-B
Thu 11:37:48 PM 36.0473 -82.9048 315° West 459 528 30,000  Level FlightAware ADS-B
Thu 11:38:22 PM 36.0987 -82.9699 314° West 460 529 30,000  Level FlightAware ADS-B
Thu 11:38:50 PM 36.1411 -83.0221 315° West 460 529 30,000  Level FlightAware ADS-B
Thu 11:39:22 PM 36.1900 -83.0819 315° West 462 532 30,000 150 Level FlightAware ADS-B
Thu 11:39:30 PM 36.2024 -83.0967 316° Northwest 466 536 30,100 1,385 Climbing FlightAware ADS-B
Thu 11:40:01 PM 36.2530 -83.1507 319° Northwest 468 539 30,900 1,770 Climbing FlightAware ADS-B
Thu 11:40:31 PM 36.3022 -83.2030 319° Northwest 465 535 31,900 943 Climbing FlightAware ADS-B
Thu 11:41:11 PM 36.3672 -83.2733 319° Northwest 468 539 32,000 85 Climbing FlightAware ADS-B
Thu 11:41:42 PM 36.4181 -83.3273 320° Northwest 468 539 32,000  Level FlightAware ADS-B
Thu 11:42:12 PM 36.4680 -83.3797 320° Northwest 469 540 32,000  Level FlightAware ADS-B
Thu 11:42:42 PM 36.5180 -83.4319 320° Northwest 467 537 32,000  Level FlightAware ADS-B
Thu 11:43:12 PM 36.5675 -83.4841 320° Northwest 465 535 32,000  Level FlightAware ADS-B
Thu 11:43:26 PM 36.5895 -83.5094 317° Northwest 465 535 32,000  Level FlightAware ADS-B
Thu 11:43:57 PM 36.6347 -83.5700 313° West 465 535 32,000  Level FlightAware ADS-B
Thu 11:44:27 PM 36.6787 -83.6291 313° West 466 536 32,000 -100 Level FlightAware ADS-B
Thu 11:44:57 PM 36.7232 -83.6886 313° West 475 547 31,900 -590 Descending FlightAware ADS-B
Thu 11:45:28 PM 36.7697 -83.7494 314° West 483 556 31,400 -984 Descending FlightAware ADS-B
Thu 11:45:58 PM 36.8161 -83.8126 313° West 483 556 30,900 -984 Descending FlightAware ADS-B
Thu 11:46:29 PM 36.8628 -83.8758 313° West 482 555 30,400 -1,048 Descending FlightAware ADS-B
Thu 11:47:01 PM 36.9112 -83.9387 314° West 482 555 29,800 -1,048 Descending FlightAware ADS-B
Thu 11:47:32 PM 36.9587 -84.0039 312° West 480 552 29,300 -1,688 Descending FlightAware ADS-B
Thu 11:48:05 PM 37.0080 -84.0702 313° West 473 544 28,000 -2,344 Descending FlightAware ADS-B
Thu 11:48:36 PM 37.0534 -84.1315 313° West 461 531 26,800 -2,273 Descending FlightAware ADS-B
Thu 11:49:11 PM 37.1032 -84.1990 313° West 450 518 25,500 -2,273 Descending FlightAware ADS-B
Thu 11:49:42 PM 37.1463 -84.2575 313° West 439 505 24,300 -2,215 Descending FlightAware ADS-B
Thu 11:50:16 PM 37.1924 -84.3186 313° West 430 495 23,100 -2,156 Descending FlightAware ADS-B
Thu 11:50:46 PM 37.2333 -84.3748 312° West 422 486 22,000 -2,262 Descending FlightAware ADS-B
Thu 11:51:17 PM 37.2738 -84.4296 313° West 431 496 20,800 -2,262 Descending FlightAware ADS-B
Thu 11:51:47 PM 37.3153 -84.4872 312° West 434 499 19,700 -2,164 Descending FlightAware ADS-B
Thu 11:52:18 PM 37.3566 -84.5441 312° West 426 490 18,600 -2,083 Descending FlightAware ADS-B
Thu 11:52:59 PM 37.4107 -84.6162 313° West 416 479 17,200 -2,132 Descending FlightAware ADS-B
Thu 11:53:34 PM 37.4557 -84.6780 313° West 408 470 15,900 -1,595 Descending FlightAware ADS-B
Thu 11:56:19 PM 37.6540 -84.9520 312° West 10,000 -1,511 Descending FlightAware ADS-B
Thu 11:58:00 PM 37.7500 -85.0850 312° West 301 346 9,200 -381 Descending FlightAware ADS-B
Thu 11:58:25 PM 37.7690 -85.1130 311° West 301 346 9,200 -2,082 Level FlightAware ADS-B
Thu 11:58:49 PM 37.7970 -85.1500 314° West 292 336 7,500 -1,962 Descending FlightAware ADS-B
Thu 11:59:17 PM 37.8190 -85.1790 314° West 292 336 7,500 -1,457 Level FlightAware ADS-B
Thu 11:59:59 PM 37.8600 -85.2370 312° West 290 334 5,800 -1,500 Descending FlightAware ADS-B
Fri 12:00:25 AM 37.8800 -85.2650 312° West 290 334 5,800 -1,200 Level FlightAware ADS-B
Fri 12:00:39 AM 37.8930 -85.2820 314° West 286 329 5,000 -1,469 Descending FlightAware ADS-B
Fri 12:01:14 AM 37.9080 -85.3330 290° West 256 295 4,600 -600 Descending FlightAware ADS-B
Fri 12:01:39 AM 37.9150 -85.3680 284° West 241 277 4,400 -444 Descending FlightAware ADS-B
Fri 12:02:08 AM 37.9230 -85.4110 283° West 226 260 4,200 -480 Descending FlightAware ADS-B
Fri 12:02:29 AM 37.9270 -85.4360 281° West 204 235 4,000 -646 Descending FlightAware ADS-B
Fri 12:03:13 AM 37.9380 -85.4880 285° West 187 215 3,500 -833 Descending FlightAware ADS-B
Fri 12:03:41 AM 37.9440 -85.5170 285° West 183 211 3,000 -720 Descending FlightAware ADS-B
Fri 12:04:03 AM 37.9480 -85.5380 284° West 179 206 2,900 -103 Descending FlightAware ADS-B
Fri 12:04:39 AM 37.9560 -85.5750 285° West 182 209 2,900  Level FlightAware ADS-B
Fri 12:05:03 AM 37.9610 -85.6000 284° West 184 212 2,900  Level FlightAware ADS-B
Fri 12:05:19 AM 37.9650 -85.6120 293° West 185 213 2,900  Level FlightAware ADS-B
Fri 12:05:34 AM 37.9760 -85.6260 315° West 185 213 2,900  Level FlightAware ADS-B
Fri 12:05:59 AM 37.9920 -85.6450 317° Northwest 185 213 2,900  Level FlightAware ADS-B
Fri 12:06:14 AM 38.0010 -85.6550 319° Northwest 184 212 2,900  Level FlightAware ADS-B
Fri 12:06:39 AM 38.0180 -85.6720 322° Northwest 185 213 2,900  Level FlightAware ADS-B
Fri 12:06:59 AM 38.0320 -85.6790 339° North 187 215 2,900 -600 Level FlightAware ADS-B
Fri 12:07:19 AM 38.0520 -85.6850 347° North 189 217 2,500 -1,067 Descending FlightAware ADS-B
Fri 12:07:44 AM 38.0730 -85.6920 345° North 185 213 2,100 -889 Descending FlightAware ADS-B
Fri 12:08:13 AM 38.0950 -85.6990 346° North 168 193 1,700 -778 Descending FlightAware ADS-B
Fri 12:08:38 AM 38.1120 -85.7060 342° North 139 160 1,400 -643 Descending FlightAware ADS-B
Fri 12:09:09 AM 38.1320 -85.7120 347° North 138 159 1,100 -679 Descending FlightAware ADS-B
Fri 12:09:31 AM 38.1450 -85.7170 343° North 140 161 800 -720 Descending FlightAware ADS-B
Fri 12:09:59 AM 38.1620 -85.7220 347° North 135 155 500 -643 Descending FlightAware ADS-B
Fri 12:10:39 AM 38.1820 -85.7290 345° North 50 58 -750 Descending FlightAware ADS-B
Fri 12:13:33 AM 38.1790 -85.7410 252° West 24 28  Level FlightAware ADS-B
Fri 12:13:53 AM 38.1800 -85.7430 302° West 17 20  Level FlightAware ADS-B
Fri 12:14:22 AM 38.1790 -85.7430 180° South 17 20  Level FlightAware ADS-B
Fri 12:14:38 AM 38.1780 -85.7430 180° South 31 36  Level FlightAware ADS-B
Fri 12:14:54 AM 38.1770 -85.7420 142° Southeast 2 2  Level FlightAware ADS-B
Fri 12:15:48 AM 38.1760 -85.7410 142° Southeast 16 18  Level FlightAware ADS-B

Login

Don't have an account? Register now (free) for customized features, flight alerts, and more!